Regional Weather Roundup
Issued by NWS

Home | Current Version | Previous Version | Text Only | Print | Product List | Glossary On
Versions: 1 2 3 4 5 6 7 8 9 10 11 12 13 14 15 16 17 18 19 20 21 22 23 24 25 26 27 28 29 30 31 32 33 34 35 36 37 38 39 40 41 42 43 44 45 46 47 48 49 50
000
ASUS42 KFFC 240510
RWRGA
WEATHER ROUNDUP FOR GEORGIA
NATIONAL WEATHER SERVICE PEACHTREE CITY GA
100 AM EDT MON JUL 24 2017

NOTE: "FAIR" INDICATES FEW OR NO CLOUDS BELOW 12,000 FEET WITH NO
SIGNIFICANT WEATHER AND/OR OBSTRUCTIONS TO VISIBILITY.

* = USE WITH CAUTION. THE STATIONS MARKED WITH AN ASTERISK MAY NOT
REPORT WEATHER SUCH AS PRECIPITATION, FOG, OR THUNDER AND ARE NOT
QUALITY CONTROLLED BY NWS.

THE REMARK "TC" DENOTES TEMPERATURE READING IN DEGREES CELSIUS.

GAZ001>058-240600-
NORTH GEORGIA

CITY           SKY/WX    TMP DP  RH WIND       PRES   REMARKS
ATLANTA        MOCLDY    79  74  84 SW3       29.94F
ATHENS         TSTM      73  73 100 CALM      29.95F FOG
CHAMBLEE       CLOUDY    77  72  84 S5        29.94F
PEACHTREE CITY PTCLDY    75  74  96 CALM      29.94F
ROME           CLEAR     75  75 100 SW3       29.90F
WEST ATLANTA   CLEAR     77  76  96 CALM      29.93F
GAINESVILLE    CLOUDY    73  69  87 S5        29.97F
CARTERSVILLE   CLEAR     73  73 100 SE3       29.93F FOG


CITY           SKY/WX    TMP DP  RH WIND       PRES   REMARKS
MARIETTA       CLOUDY    78  73  85 CALM      29.94F
CANTON*        CLEAR     75  75 100 CALM      29.96F
$$

GAZ059>098-102>109-240600-
CENTRAL GEORGIA

CITY           SKY/WX    TMP DP  RH WIND       PRES   REMARKS
AUGUSTA-BUSH   LGT RAIN  75  73  93 CALM      29.92F
AUGUSTA-DANIEL LGT RAIN  75  70  84 N3        29.94S
COLUMBUS       CLEAR     80  73  79 SW5       29.94S
MACON          MOCLDY    77  73  87 SW3       29.94S
ROBINS AFB     MOCLDY    77  73  88 CALM      29.93F


CITY           SKY/WX    TMP DP  RH WIND       PRES   REMARKS
LAGRANGE*      CLEAR     76  76  98 CALM      29.95S
SYLVANIA*      CLOUDY    77  77 100 SW3       29.93F
MILLEDGEVILLE* CLOUDY    77  72  83 S5        29.94F
$$

GAZ099>101-110>166-240600-
SOUTH GEORGIA

CITY           SKY/WX    TMP DP  RH WIND       PRES   REMARKS
SAVANNAH       CLOUDY   N/A N/A N/A SW8       29.96R
VALDOSTA       CLEAR     75  74  96 S6        29.99S
ALMA           PTCLDY    77  73  87 S7        29.96F
ST SIMONS      PTCLDY    79  74  84 S9        29.98S
FT STEWART     CLOUDY    76  73  91 S5        29.94R
ALBANY         CLEAR     77  75  93 S6        29.97F
HUNTER AFB     CLOUDY    78  74  87 SW9       29.93S
MOODY AFB      CLEAR     75  74  94 S7        29.97S
BRUNSWICK      PTCLDY    79  75  89 SW8       29.98S


CITY           SKY/WX    TMP DP  RH WIND       PRES   REMARKS
BAINBRIDGE*    CLEAR     77  77 100 S6        29.97S
MOULTRIE*      CLEAR     77  73  88 S5        29.98F
VIDALIA*       CLOUDY    77  75  94 SW5       29.95S
WAYCROSS*      PTCLDY    79  79 100 SW6       29.97F
DOUGLAS*       PTCLDY    75  73  94 SW5       29.99S
$$




USA.gov is the U.S. government's official web portal to all federal, state and local government web resources and services.